Weather History for Muscatine, IA

Change the Weather History Date:

Thursday, June 21, 2012

  Actual Average Record
Temperature  
Mean Temperature 24 °C -  
Max Temperature 29 °C 28 °C 37 °C (1988)
Min Temperature 18 °C 16 °C 7 °C (1992)
Cooling Degree Days 10    
Growing Degree Days 25 (Base 50)    
Moisture  
Dew Point 16 °C    
Average Humidity 62    
Maximum Humidity 88    
Minimum Humidity 32    
Precipitation  
Precipitation 1.02 mm - - ()
Sea Level Pressure  
Sea Level Pressure 1015 hPa    
Wind  
Wind Speed 14 km/h (WNW)    
Max Wind Speed 39 km/h    
Max Gust Speed 53 km/h    
Visibility 16 kilometers    
Events Rain    
Averages and records for this station are not official NWS values.
T = Trace of Precipitation, MM = Missing Value Source: NWS Daily Summary

Daily Weather History Graph

Daily Weather History Graph

Search for Another Location

Airport:

Trip Planner

Search our weather history database for the weather conditions in past years. The results will help you decide how hot, cold, wet, or windy it might be!

Date:

Astronomy

Jun. 21, 2012 Rise Set
Actual Time 5:31 AM CDT 8:41 PM CDT
Civil Twilight 4:57 AM CDT 9:15 PM CDT
Nautical Twilight 4:13 AM CDT 9:59 PM CDT
Astronomical Twilight 3:21 AM CDT 10:51 PM CDT
Moon 7:31 AM CDT 10:03 PM CDT
Length of Visible Light 16h 18m
Length of Day
15h 10m
Waxing Crescent, 4% of the Moon is Illuminated
Jun 21
Waxing Crescent
Jun 26
First Quarter
Jul 3
Full
Jul 10
Last Quarter
Jul 18
New

Hourly Weather History & Observations

Time (CDT) Temp. Heat Index Dew Point Humidity Pressure Visibility Wind Dir Wind Speed Gust Speed Precip Events Conditions
12:15 AM 27.0 °C 28.2 °C 19.0 °C 61% 1012.4 hPa 16.1 km WNW 38.9 km/h / 10.8 m/s 53.7 km/h / 14.9 m/s N/A   Mostly Cloudy
12:35 AM 25.0 °C - 18.0 °C 65% 1012.8 hPa 16.1 km WNW 27.8 km/h / 7.7 m/s 38.9 km/h / 10.8 m/s N/A   Overcast
12:55 AM 23.0 °C - 18.0 °C 73% 1012.8 hPa 16.1 km WNW 14.8 km/h / 4.1 m/s - N/A   Scattered Clouds
1:15 AM 23.0 °C - 18.0 °C 73% 1013.1 hPa 16.1 km WNW 9.3 km/h / 2.6 m/s - N/A   Scattered Clouds
1:35 AM 22.0 °C - 18.0 °C 78% 1013.1 hPa 16.1 km West 7.4 km/h / 2.1 m/s - N/A   Scattered Clouds
1:55 AM 22.0 °C - 18.0 °C 78% 1013.1 hPa 16.1 km West 7.4 km/h / 2.1 m/s - N/A   Scattered Clouds
2:15 AM 22.0 °C - 18.0 °C 78% 1013.1 hPa 16.1 km Calm Calm - N/A   Scattered Clouds
2:35 AM 22.0 °C - 19.0 °C 83% 1013.1 hPa 16.1 km WSW 7.4 km/h / 2.1 m/s - N/A   Overcast
2:55 AM 22.0 °C - 19.0 °C 83% 1013.1 hPa 16.1 km WSW 7.4 km/h / 2.1 m/s - N/A Rain Light Rain
3:15 AM 22.0 °C - 19.0 °C 83% 1012.4 hPa 11.3 km Calm Calm - 0.5 mm Rain Rain
3:35 AM 22.0 °C - 19.0 °C 83% 1012.8 hPa 16.1 km West 5.6 km/h / 1.5 m/s - 0.8 mm Rain Light Rain
3:55 AM 22.0 °C - 19.0 °C 83% 1012.8 hPa 16.1 km SSW 5.6 km/h / 1.5 m/s - 0.8 mm Rain Light Rain
4:15 AM 22.0 °C - 19.0 °C 83% 1012.8 hPa 16.1 km Calm Calm - 0.3 mm Rain Light Rain
4:35 AM 22.0 °C - 19.0 °C 83% 1012.8 hPa 16.1 km West 9.3 km/h / 2.6 m/s - 0.3 mm   Overcast
4:55 AM 21.0 °C - 18.0 °C 83% 1013.1 hPa 16.1 km NW 13.0 km/h / 3.6 m/s 29.6 km/h / 8.2 m/s 0.3 mm   Overcast
5:15 AM 20.0 °C - 18.0 °C 88% 1013.4 hPa 11.3 km Calm Calm - N/A   Overcast
5:35 AM 19.0 °C - 17.0 °C 88% 1014.1 hPa 16.1 km NW 11.1 km/h / 3.1 m/s - N/A   Overcast
5:55 AM 19.0 °C - 17.0 °C 88% 1014.1 hPa 16.1 km NW 5.6 km/h / 1.5 m/s - N/A   Overcast
6:15 AM 20.0 °C - 17.0 °C 83% 1014.1 hPa 16.1 km Calm Calm - N/A   Mostly Cloudy
6:35 AM 20.0 °C - 17.0 °C 83% 1014.4 hPa 16.1 km WNW 5.6 km/h / 1.5 m/s - N/A   Mostly Cloudy
6:55 AM 19.0 °C - 17.0 °C 88% 1014.8 hPa 16.1 km NW 11.1 km/h / 3.1 m/s - N/A   Mostly Cloudy
7:15 AM 19.0 °C - 17.0 °C 88% 1015.1 hPa 16.1 km West 5.6 km/h / 1.5 m/s - N/A   Scattered Clouds
7:35 AM 20.0 °C - 17.0 °C 83% 1015.1 hPa 16.1 km WNW 11.1 km/h / 3.1 m/s - N/A   Mostly Cloudy
7:55 AM 20.0 °C - 17.0 °C 83% 1015.1 hPa 16.1 km NW 13.0 km/h / 3.6 m/s - N/A   Scattered Clouds
8:15 AM 21.0 °C - 17.0 °C 78% 1015.8 hPa 16.1 km NW 14.8 km/h / 4.1 m/s - N/A   Scattered Clouds
8:35 AM 21.0 °C - 17.0 °C 78% 1015.8 hPa 16.1 km NW 22.2 km/h / 6.2 m/s - N/A   Clear
8:55 AM 21.0 °C - 17.0 °C 78% 1016.1 hPa 16.1 km NW 16.7 km/h / 4.6 m/s 31.5 km/h / 8.7 m/s N/A   Clear
9:15 AM 20.0 °C - 16.0 °C 78% 1016.1 hPa 16.1 km NW 18.5 km/h / 5.1 m/s 29.6 km/h / 8.2 m/s N/A   Scattered Clouds
9:35 AM 21.0 °C - 16.0 °C 73% 1016.1 hPa 16.1 km NW 14.8 km/h / 4.1 m/s - N/A   Clear
9:55 AM 22.0 °C - 17.0 °C 73% 1016.1 hPa 16.1 km NW 14.8 km/h / 4.1 m/s - N/A   Clear
10:15 AM 22.0 °C - 17.0 °C 73% 1016.1 hPa 16.1 km NW 14.8 km/h / 4.1 m/s - N/A   Clear
10:35 AM 24.0 °C - 16.0 °C 61% 1016.1 hPa 16.1 km NW 14.8 km/h / 4.1 m/s - N/A   Clear
10:55 AM 25.0 °C - 16.0 °C 57% 1016.1 hPa 16.1 km NW 20.4 km/h / 5.7 m/s - N/A   Clear
11:15 AM 26.0 °C - 16.0 °C 54% 1016.1 hPa 16.1 km NNW 16.7 km/h / 4.6 m/s - N/A   Clear
11:35 AM 27.0 °C 27.5 °C 16.0 °C 51% 1016.1 hPa 16.1 km WNW 16.7 km/h / 4.6 m/s 25.9 km/h / 7.2 m/s N/A   Clear
11:55 AM 27.0 °C 27.5 °C 16.0 °C 51% 1016.1 hPa 16.1 km WNW 16.7 km/h / 4.6 m/s - N/A   Clear
12:15 PM 27.0 °C 27.5 °C 16.0 °C 51% 1016.1 hPa 16.1 km WNW 20.4 km/h / 5.7 m/s 31.5 km/h / 8.7 m/s N/A   Clear
12:35 PM 28.0 °C 28.3 °C 16.0 °C 48% 1016.1 hPa 16.1 km NW 14.8 km/h / 4.1 m/s - N/A   Clear
12:55 PM 28.0 °C 28.3 °C 16.0 °C 48% 1016.1 hPa 16.1 km WNW 24.1 km/h / 6.7 m/s 42.6 km/h / 11.8 m/s N/A   Clear
1:15 PM 28.0 °C 28.3 °C 16.0 °C 48% 1015.8 hPa 16.1 km WNW 18.5 km/h / 5.1 m/s 25.9 km/h / 7.2 m/s N/A   Clear
1:35 PM 28.0 °C 28.3 °C 16.0 °C 48% 1015.8 hPa 16.1 km NW 14.8 km/h / 4.1 m/s 31.5 km/h / 8.7 m/s N/A   Clear
1:55 PM 29.0 °C 28.6 °C 14.0 °C 40% 1015.8 hPa 16.1 km NW 20.4 km/h / 5.7 m/s - N/A   Clear
2:15 PM 29.0 °C 28.6 °C 14.0 °C 40% 1015.5 hPa 16.1 km NW 20.4 km/h / 5.7 m/s 33.3 km/h / 9.3 m/s N/A   Clear
2:35 PM 29.0 °C 28.4 °C 13.0 °C 37% 1015.5 hPa 16.1 km NW 22.2 km/h / 6.2 m/s - N/A   Clear
2:55 PM 29.0 °C 28.4 °C 13.0 °C 37% 1015.5 hPa 16.1 km NNW 20.4 km/h / 5.7 m/s 31.5 km/h / 8.7 m/s N/A   Scattered Clouds
3:15 PM 28.0 °C 27.6 °C 13.0 °C 39% 1015.5 hPa 16.1 km NW 20.4 km/h / 5.7 m/s 33.3 km/h / 9.3 m/s N/A   Scattered Clouds
3:35 PM 29.0 °C 28.2 °C 12.0 °C 35% 1015.1 hPa 16.1 km WNW 20.4 km/h / 5.7 m/s 29.6 km/h / 8.2 m/s N/A   Scattered Clouds
3:55 PM 29.0 °C 28.2 °C 12.0 °C 35% 1015.1 hPa 16.1 km WNW 16.7 km/h / 4.6 m/s 24.1 km/h / 6.7 m/s N/A   Clear
4:15 PM 28.0 °C 27.5 °C 12.0 °C 37% 1015.1 hPa 16.1 km WNW 16.7 km/h / 4.6 m/s 29.6 km/h / 8.2 m/s N/A   Scattered Clouds
4:35 PM 29.0 °C - 11.0 °C 33% 1014.8 hPa 16.1 km NW 16.7 km/h / 4.6 m/s - N/A   Clear
4:55 PM 29.0 °C 28.2 °C 12.0 °C 35% 1014.8 hPa 16.1 km WNW 22.2 km/h / 6.2 m/s - N/A   Scattered Clouds
5:15 PM 29.0 °C 28.2 °C 12.0 °C 35% 1014.8 hPa 16.1 km WNW 18.5 km/h / 5.1 m/s - N/A   Scattered Clouds
5:35 PM 29.0 °C - 11.0 °C 33% 1014.8 hPa 16.1 km NW 16.7 km/h / 4.6 m/s - N/A   Clear
5:55 PM 28.0 °C - 11.0 °C 35% 1014.8 hPa 16.1 km WNW 22.2 km/h / 6.2 m/s 27.8 km/h / 7.7 m/s N/A   Clear
6:15 PM 28.0 °C - 10.0 °C 32% 1014.8 hPa 16.1 km WNW 18.5 km/h / 5.1 m/s 27.8 km/h / 7.7 m/s N/A   Clear
6:35 PM 28.0 °C - 11.0 °C 35% 1014.8 hPa 16.1 km WNW 20.4 km/h / 5.7 m/s 29.6 km/h / 8.2 m/s N/A   Clear
6:55 PM 28.0 °C - 11.0 °C 35% 1014.8 hPa 16.1 km WNW 18.5 km/h / 5.1 m/s - N/A   Clear
7:15 PM 27.0 °C 26.8 °C 12.0 °C 39% 1015.1 hPa 16.1 km NW 13.0 km/h / 3.6 m/s - N/A   Clear
7:35 PM 27.0 °C 26.8 °C 12.0 °C 39% 1015.1 hPa 16.1 km NW 14.8 km/h / 4.1 m/s - N/A   Clear
7:55 PM 26.0 °C - 13.0 °C 44% 1015.5 hPa 16.1 km NW 9.3 km/h / 2.6 m/s - N/A   Clear
8:15 PM 25.0 °C - 13.0 °C 47% 1015.5 hPa 16.1 km WNW 9.3 km/h / 2.6 m/s - N/A   Clear
8:35 PM 24.0 °C - 13.0 °C 50% 1015.5 hPa 16.1 km WNW 7.4 km/h / 2.1 m/s - N/A   Clear
8:55 PM 22.0 °C - 14.0 °C 60% 1015.5 hPa 16.1 km West 5.6 km/h / 1.5 m/s - N/A   Clear
9:15 PM 21.0 °C - 14.0 °C 64% 1015.8 hPa 16.1 km West 5.6 km/h / 1.5 m/s - N/A   Clear
9:35 PM 21.0 °C - 14.0 °C 64% 1015.8 hPa 16.1 km West 7.4 km/h / 2.1 m/s - N/A   Clear
9:55 PM 20.0 °C - 14.0 °C 68% 1016.1 hPa 16.1 km WNW 7.4 km/h / 2.1 m/s - N/A   Clear
10:15 PM 20.0 °C - 14.0 °C 68% 1016.5 hPa 16.1 km WNW 9.3 km/h / 2.6 m/s - N/A   Clear
10:35 PM 20.0 °C - 14.0 °C 68% 1016.5 hPa 16.1 km Calm Calm - N/A   Clear
10:55 PM 20.0 °C - 14.0 °C 68% 1016.8 hPa 16.1 km NW 5.6 km/h / 1.5 m/s - N/A   Clear
11:35 PM 19.0 °C - 14.0 °C 73% 1016.8 hPa 16.1 km Calm Calm - N/A   Clear
11:55 PM 18.0 °C - 14.0 °C 77% 1016.8 hPa 16.1 km NNW 5.6 km/h / 1.5 m/s - N/A   Clear